Time,TemperatureF,DewpointF,PressureIn,WindDirection,WindDirectionDegrees,WindSpeedMPH,WindSpeedGustMPH,Humidity,HourlyPrecipIn,Conditions,Clouds,dailyrainin,SoftwareType,DateUTC
2013-02-18 00:01:00,33.8,30.1,29.53,NW,319,8.0,8.0,86,0.00,,,0.00,Wunderground v.1.15,2013-02-18 06:01:00,
2013-02-18 00:10:00,33.7,30.0,29.54,NW,304,8.0,8.0,86,0.00,,,0.00,Wunderground v.1.15,2013-02-18 06:10:00,
2013-02-18 00:15:00,33.6,29.9,29.54,WNW,302,7.0,10.0,86,0.00,,,0.00,Wunderground v.1.15,2013-02-18 06:15:00,
2013-02-18 00:20:00,33.6,29.9,29.54,NNW,335,7.0,7.0,86,0.00,,,0.00,Wunderground v.1.15,2013-02-18 06:20:00,
2013-02-18 00:25:00,33.5,30.0,29.54,NNW,331,7.0,8.0,87,0.00,,,0.00,Wunderground v.1.15,2013-02-18 06:25:00,
2013-02-18 00:30:00,33.4,29.9,29.55,WNW,292,8.0,8.0,87,0.00,,,0.00,Wunderground v.1.15,2013-02-18 06:30:00,
2013-02-18 00:35:00,33.2,29.5,29.55,NNW,327,9.0,9.0,86,0.00,,,0.00,Wunderground v.1.15,2013-02-18 06:35:00,
2013-02-18 00:40:00,32.9,29.5,29.55,West,276,8.0,8.0,87,0.00,,,0.00,Wunderground v.1.15,2013-02-18 06:40:00,
2013-02-18 00:46:00,32.7,29.5,29.56,NW,317,7.0,10.0,88,0.00,,,0.00,Wunderground v.1.15,2013-02-18 06:46:00,
2013-02-18 00:55:00,32.1,29.2,29.57,WNW,294,8.0,9.0,89,0.00,,,0.00,Wunderground v.1.15,2013-02-18 06:55:00,
2013-02-18 01:01:00,31.9,29.3,29.57,West,275,8.0,8.0,90,0.00,,,0.00,Wunderground v.1.15,2013-02-18 07:01:00,
2013-02-18 01:11:00,31.7,29.1,29.57,WNW,284,8.0,11.0,90,0.00,,,0.00,Wunderground v.1.15,2013-02-18 07:11:00,
2013-02-18 01:20:00,31.6,29.3,29.58,WNW,302,7.0,7.0,91,0.00,,,0.00,Wunderground v.1.15,2013-02-18 07:20:00,
2013-02-18 01:25:00,31.4,29.1,29.58,NW,319,8.0,16.0,91,0.00,,,0.00,Wunderground v.1.15,2013-02-18 07:25:00,
2013-02-18 01:30:00,30.9,28.6,29.59,North,360,10.0,15.0,91,0.00,,,0.00,Wunderground v.1.15,2013-02-18 07:30:00,
2013-02-18 01:35:00,30.2,27.6,29.59,WNW,298,12.0,15.0,90,0.00,,,0.00,Wunderground v.1.15,2013-02-18 07:35:00,
2013-02-18 01:40:00,29.9,27.3,29.59,WNW,298,11.0,13.0,90,0.00,,,0.00,Wunderground v.1.15,2013-02-18 07:40:00,
2013-02-18 01:45:00,29.7,27.4,29.59,NW,325,11.0,13.0,91,0.00,,,0.00,Wunderground v.1.15,2013-02-18 07:45:00,
2013-02-18 01:50:00,29.4,27.1,29.60,WNW,284,13.0,19.0,91,0.00,,,0.00,Wunderground v.1.15,2013-02-18 07:50:00,
2013-02-18 01:56:00,28.7,26.4,29.60,WNW,301,13.0,19.0,91,0.00,,,0.00,Wunderground v.1.15,2013-02-18 07:56:00,
2013-02-18 02:01:00,28.1,25.8,29.61,NW,326,13.0,13.0,91,0.00,,,0.00,Wunderground v.1.15,2013-02-18 08:01:00,
2013-02-18 02:10:00,26.9,24.4,29.62,NW,321,13.0,21.0,90,0.00,,,0.00,Wunderground v.1.15,2013-02-18 08:10:00,
2013-02-18 02:15:00,26.2,23.7,29.63,North,360,13.0,21.0,90,0.00,,,0.00,Wunderground v.1.15,2013-02-18 08:15:00,
2013-02-18 02:21:00,25.3,22.8,29.63,NW,319,15.0,15.0,90,0.00,,,0.00,Wunderground v.1.15,2013-02-18 08:21:00,
2013-02-18 02:30:00,24.9,22.4,29.64,WNW,283,12.0,12.0,90,0.00,,,0.00,Wunderground v.1.15,2013-02-18 08:30:00,
2013-02-18 02:35:00,24.7,22.2,29.64,NW,322,13.0,21.0,90,0.00,,,0.00,Wunderground v.1.15,2013-02-18 08:35:00,
2013-02-18 02:40:00,24.4,21.9,29.65,NNW,329,13.0,14.0,90,0.00,,,0.00,Wunderground v.1.15,2013-02-18 08:40:00,
2013-02-18 02:45:00,24.2,21.7,29.65,NW,323,12.0,14.0,90,0.00,,,0.00,Wunderground v.1.15,2013-02-18 08:45:00,
2013-02-18 02:50:00,24.0,21.5,29.65,NNW,330,11.0,14.0,90,0.00,,,0.00,Wunderground v.1.15,2013-02-18 08:50:00,
2013-02-18 02:55:00,24.0,21.5,29.66,NW,304,10.0,18.0,90,0.00,,,0.00,Wunderground v.1.15,2013-02-18 08:55:00,
2013-02-18 03:01:00,23.8,21.3,29.66,NNW,341,11.0,11.0,90,0.00,,,0.00,Wunderground v.1.15,2013-02-18 09:01:00,
2013-02-18 03:10:00,23.1,20.3,29.66,NW,323,13.0,13.0,89,0.00,,,0.00,Wunderground v.1.15,2013-02-18 09:10:00,
2013-02-18 03:15:00,22.8,20.0,29.67,NNW,334,14.0,14.0,89,0.00,,,0.00,Wunderground v.1.15,2013-02-18 09:15:00,
2013-02-18 03:20:00,22.7,19.9,29.67,NNW,327,12.0,12.0,89,0.00,,,0.00,Wunderground v.1.15,2013-02-18 09:20:00,
2013-02-18 03:26:00,22.6,20.1,29.67,NW,324,11.0,12.0,90,0.00,,,0.00,Wunderground v.1.15,2013-02-18 09:26:00,
2013-02-18 03:35:00,21.7,18.7,29.68,NW,311,15.0,22.0,88,0.00,,,0.00,Wunderground v.1.15,2013-02-18 09:35:00,
2013-02-18 03:40:00,21.3,18.3,29.68,NNW,337,16.0,16.0,88,0.00,,,0.00,Wunderground v.1.15,2013-02-18 09:40:00,
2013-02-18 03:45:00,20.7,17.4,29.69,NNW,332,15.0,16.0,87,0.00,,,0.00,Wunderground v.1.15,2013-02-18 09:45:00,
2013-02-18 03:50:00,20.2,16.7,29.69,NW,315,15.0,19.0,86,0.00,,,0.00,Wunderground v.1.15,2013-02-18 09:50:00,
2013-02-18 03:55:00,19.9,16.4,29.69,NNW,329,14.0,19.0,86,0.00,,,0.00,Wunderground v.1.15,2013-02-18 09:55:00,
2013-02-18 04:01:00,19.8,16.3,29.69,NNW,329,14.0,14.0,86,0.00,,,0.00,Wunderground v.1.15,2013-02-18 10:01:00,
2013-02-18 04:10:00,19.8,16.3,29.70,NNW,340,14.0,14.0,86,0.00,,,0.00,Wunderground v.1.15,2013-02-18 10:10:00,
2013-02-18 04:15:00,19.8,16.3,29.70,NW,309,13.0,14.0,86,0.00,,,0.00,Wunderground v.1.15,2013-02-18 10:15:00,
2013-02-18 04:20:00,19.5,15.7,29.72,NNW,333,13.0,13.0,85,0.00,,,0.00,Wunderground v.1.15,2013-02-18 10:20:00,
2013-02-18 04:26:00,19.0,15.0,29.72,NNW,327,14.0,14.0,84,0.00,,,0.00,Wunderground v.1.15,2013-02-18 10:26:00,
2013-02-18 04:36:00,18.7,14.9,29.72,NW,318,11.0,14.0,85,0.00,,,0.00,Wunderground v.1.15,2013-02-18 10:36:00,
2013-02-18 04:45:00,18.8,15.3,29.73,NNW,344,10.0,12.0,86,0.00,,,0.00,Wunderground v.1.15,2013-02-18 10:45:00,
2013-02-18 04:50:00,18.8,15.0,29.73,NW,319,10.0,15.0,85,0.00,,,0.00,Wunderground v.1.15,2013-02-18 10:50:00,
2013-02-18 04:55:00,18.5,14.5,29.73,North,10,12.0,22.0,84,0.00,,,0.00,Wunderground v.1.15,2013-02-18 10:55:00,
2013-02-18 05:01:00,18.2,13.9,29.73,NNE,15,14.0,14.0,83,0.00,,,0.00,Wunderground v.1.15,2013-02-18 11:01:00,
2013-02-18 05:10:00,18.1,13.8,29.75,NW,307,11.0,17.0,83,0.00,,,0.00,Wunderground v.1.15,2013-02-18 11:10:00,
2013-02-18 05:15:00,18.0,13.4,29.75,NNW,344,13.0,17.0,82,0.00,,,0.00,Wunderground v.1.15,2013-02-18 11:15:00,
2013-02-18 05:20:00,17.8,13.2,29.76,North,360,11.0,11.0,82,0.00,,,0.00,Wunderground v.1.15,2013-02-18 11:20:00,
2013-02-18 05:26:00,17.7,13.4,29.77,NNW,346,11.0,19.0,83,0.00,,,0.00,Wunderground v.1.15,2013-02-18 11:26:00,
2013-02-18 05:31:00,17.6,13.3,29.76,NNW,346,13.0,17.0,83,0.00,,,0.00,Wunderground v.1.15,2013-02-18 11:31:00,
2013-02-18 05:40:00,17.5,12.9,29.77,NW,326,13.0,18.0,82,0.00,,,0.00,Wunderground v.1.15,2013-02-18 11:40:00,
2013-02-18 05:46:00,17.4,13.1,29.77,NW,317,13.0,18.0,83,0.00,,,0.00,Wunderground v.1.15,2013-02-18 11:46:00,
2013-02-18 05:55:00,17.0,12.5,29.78,NNW,327,13.0,13.0,82,0.00,,,0.00,Wunderground v.1.15,2013-02-18 11:55:00,
2013-02-18 06:01:00,16.5,12.0,29.78,NNW,327,14.0,15.0,82,0.00,,,0.00,Wunderground v.1.15,2013-02-18 12:01:00,
2013-02-18 06:10:00,15.9,11.4,29.79,NNW,333,10.0,10.0,82,0.00,,,0.00,Wunderground v.1.15,2013-02-18 12:10:00,
2013-02-18 06:15:00,15.7,11.2,29.79,NNW,332,10.0,11.0,82,0.00,,,0.00,Wunderground v.1.15,2013-02-18 12:15:00,
2013-02-18 06:20:00,15.6,11.4,29.79,NNW,327,10.0,11.0,83,0.00,,,0.00,Wunderground v.1.15,2013-02-18 12:20:00,
2013-02-18 06:25:00,15.5,11.3,29.79,NNW,346,10.0,19.0,83,0.00,,,0.00,Wunderground v.1.15,2013-02-18 12:25:00,
2013-02-18 06:30:00,15.4,10.9,29.79,NW,324,12.0,20.0,82,0.00,,,0.00,Wunderground v.1.15,2013-02-18 12:30:00,
2013-02-18 06:36:00,15.3,10.8,29.80,NNW,329,13.0,20.0,82,0.00,,,0.00,Wunderground v.1.15,2013-02-18 12:36:00,
2013-02-18 06:45:00,15.2,10.7,29.81,NNW,341,11.0,12.0,82,0.00,,,0.00,Wunderground v.1.15,2013-02-18 12:45:00,
2013-02-18 06:50:00,15.1,10.6,29.81,NNW,334,11.0,11.0,82,0.00,,,0.00,Wunderground v.1.15,2013-02-18 12:50:00,
2013-02-18 06:55:00,15.0,10.2,29.81,North,10,12.0,12.0,81,0.00,,,0.00,Wunderground v.1.15,2013-02-18 12:55:00,
2013-02-18 07:01:00,14.8,10.0,29.81,NNW,336,12.0,12.0,81,0.00,,,0.00,Wunderground v.1.15,2013-02-18 13:01:00,
2013-02-18 07:10:00,14.6,10.1,29.81,NW,321,12.0,18.0,82,0.00,,,0.00,Wunderground v.1.15,2013-02-18 13:10:00,
2013-02-18 07:15:00,14.4,9.9,29.81,NNW,344,12.0,18.0,82,0.00,,,0.00,Wunderground v.1.15,2013-02-18 13:15:00,
2013-02-18 07:20:00,14.4,10.2,29.81,NNW,346,11.0,11.0,83,0.00,,,0.00,Wunderground v.1.15,2013-02-18 13:20:00,
2013-02-18 07:26:00,14.4,10.2,29.82,NNW,330,10.0,12.0,83,0.00,,,0.00,Wunderground v.1.15,2013-02-18 13:26:00,
2013-02-18 07:31:00,14.4,10.2,29.82,NW,310,11.0,11.0,83,0.00,,,0.00,Wunderground v.1.15,2013-02-18 13:31:00,
2013-02-18 07:36:00,14.3,10.1,29.82,North,360,11.0,11.0,83,0.00,,,0.00,Wunderground v.1.15,2013-02-18 13:36:00,
2013-02-18 07:45:00,14.3,10.1,29.83,WNW,301,9.0,10.0,83,0.00,,,0.00,Wunderground v.1.15,2013-02-18 13:45:00,
2013-02-18 07:50:00,14.2,10.3,29.83,NW,321,9.0,15.0,84,0.00,,,0.00,Wunderground v.1.15,2013-02-18 13:50:00,
2013-02-18 07:56:00,14.2,10.0,29.84,NNW,334,9.0,15.0,83,0.00,,,0.00,Wunderground v.1.15,2013-02-18 13:56:00,
2013-02-18 08:01:00,14.0,9.8,29.84,NW,314,11.0,15.0,83,0.00,,,0.00,Wunderground v.1.15,2013-02-18 14:01:00,
2013-02-18 08:10:00,14.0,9.8,29.85,NW,321,12.0,12.0,83,0.00,,,0.00,Wunderground v.1.15,2013-02-18 14:10:00,
2013-02-18 08:15:00,14.1,9.6,29.86,North,355,12.0,12.0,82,0.00,,,0.00,Wunderground v.1.15,2013-02-18 14:15:00,
2013-02-18 08:20:00,13.9,9.1,29.86,NNW,329,12.0,12.0,81,0.00,,,0.00,Wunderground v.1.15,2013-02-18 14:20:00,
2013-02-18 08:25:00,13.8,9.0,29.86,North,350,12.0,21.0,81,0.00,,,0.00,Wunderground v.1.15,2013-02-18 14:25:00,
2013-02-18 08:30:00,13.7,9.0,29.87,North,349,12.0,16.0,81,0.00,,,0.00,Wunderground v.1.15,2013-02-18 14:30:00,
2013-02-18 08:35:00,13.6,8.9,29.87,North,360,13.0,16.0,81,0.00,,,0.00,Wunderground v.1.15,2013-02-18 14:35:00,
2013-02-18 08:41:00,13.7,9.2,29.88,NW,322,12.0,12.0,82,0.00,,,0.00,Wunderground v.1.15,2013-02-18 14:41:00,
2013-02-18 08:46:00,13.7,9.2,29.88,NNW,328,10.0,12.0,82,0.00,,,0.00,Wunderground v.1.15,2013-02-18 14:46:00,
2013-02-18 08:55:00,14.1,10.2,29.88,WNW,295,8.0,9.0,84,0.00,,,0.00,Wunderground v.1.15,2013-02-18 14:55:00,
2013-02-18 09:01:00,14.2,10.5,29.88,NNW,340,9.0,16.0,85,0.00,,,0.00,Wunderground v.1.15,2013-02-18 15:01:00,
2013-02-18 09:10:00,14.3,10.6,29.89,NNE,12,10.0,10.0,85,0.00,,,0.00,Wunderground v.1.15,2013-02-18 15:10:00,
2013-02-18 09:15:00,13.6,9.4,29.89,NW,311,12.0,12.0,83,0.00,,,0.00,Wunderground v.1.15,2013-02-18 15:15:00,
2013-02-18 09:20:00,13.2,9.0,29.90,NW,319,13.0,13.0,83,0.00,,,0.00,Wunderground v.1.15,2013-02-18 15:20:00,
2013-02-18 09:25:00,13.0,9.1,29.90,NW,311,11.0,13.0,84,0.00,,,0.00,Wunderground v.1.15,2013-02-18 15:25:00,
2013-02-18 09:30:00,13.0,9.1,29.90,NNW,344,11.0,11.0,84,0.00,,,0.00,Wunderground v.1.15,2013-02-18 15:30:00,
2013-02-18 09:35:00,13.0,9.1,29.91,NNE,19,11.0,11.0,84,0.00,,,0.00,Wunderground v.1.15,2013-02-18 15:35:00,
2013-02-18 09:41:00,13.0,9.1,29.91,NW,323,11.0,11.0,84,0.00,,,0.00,Wunderground v.1.15,2013-02-18 15:41:00,
2013-02-18 09:50:00,13.1,9.2,29.91,North,355,8.0,12.0,84,0.00,,,0.00,Wunderground v.1.15,2013-02-18 15:50:00,
2013-02-18 09:55:00,13.2,9.0,29.91,North,349,10.0,12.0,83,0.00,,,0.00,Wunderground v.1.15,2013-02-18 15:55:00,
2013-02-18 10:01:00,13.3,9.1,29.91,NW,315,11.0,11.0,83,0.00,,,0.00,Wunderground v.1.15,2013-02-18 16:01:00,
2013-02-18 10:11:00,13.6,9.1,29.91,NNW,329,11.0,11.0,82,0.00,,,0.00,Wunderground v.1.15,2013-02-18 16:11:00,
2013-02-18 10:20:00,13.3,8.6,29.92,NNW,327,14.0,14.0,81,0.00,,,0.00,Wunderground v.1.15,2013-02-18 16:20:00,
2013-02-18 10:25:00,13.4,8.7,29.92,NW,321,13.0,14.0,81,0.00,,,0.00,Wunderground v.1.15,2013-02-18 16:25:00,
2013-02-18 10:30:00,13.5,8.5,29.93,NNW,330,10.0,10.0,80,0.00,,,0.00,Wunderground v.1.15,2013-02-18 16:30:00,
2013-02-18 10:35:00,13.5,8.5,29.93,NW,321,9.0,13.0,80,0.00,,,0.00,Wunderground v.1.15,2013-02-18 16:35:00,
2013-02-18 10:40:00,13.6,8.6,29.93,NW,318,8.0,18.0,80,0.00,,,0.00,Wunderground v.1.15,2013-02-18 16:40:00,
2013-02-18 10:46:00,13.6,8.6,29.93,WNW,303,11.0,18.0,80,0.00,,,0.00,Wunderground v.1.15,2013-02-18 16:46:00,
2013-02-18 10:55:00,14.0,9.0,29.94,NW,318,9.0,16.0,80,0.00,,,0.00,Wunderground v.1.15,2013-02-18 16:55:00,
2013-02-18 11:01:00,14.1,8.8,29.94,NW,311,11.0,16.0,79,0.00,,,0.00,Wunderground v.1.15,2013-02-18 17:01:00,
2013-02-18 11:11:00,14.5,9.2,29.94,North,360,12.0,12.0,79,0.00,,,0.00,Wunderground v.1.15,2013-02-18 17:11:00,
2013-02-18 11:20:00,14.9,9.6,29.95,NNW,329,10.0,19.0,79,0.00,,,0.00,Wunderground v.1.15,2013-02-18 17:20:00,
2013-02-18 11:25:00,14.9,9.3,29.95,NNW,327,12.0,19.0,78,0.00,,,0.00,Wunderground v.1.15,2013-02-18 17:25:00,
2013-02-18 11:30:00,15.1,9.5,29.95,NNW,333,11.0,15.0,78,0.00,,,0.00,Wunderground v.1.15,2013-02-18 17:30:00,
2013-02-18 11:36:00,15.4,9.8,29.95,NNW,331,10.0,15.0,78,0.00,,,0.00,Wunderground v.1.15,2013-02-18 17:36:00,
2013-02-18 11:46:00,15.3,9.7,29.96,NNW,328,10.0,14.0,78,0.00,,,0.00,Wunderground v.1.15,2013-02-18 17:46:00,
2013-02-18 11:55:00,15.2,10.1,29.96,North,5,9.0,13.0,80,0.00,,,0.00,Wunderground v.1.15,2013-02-18 17:55:00,
2013-02-18 12:01:00,15.2,9.9,29.96,NNE,15,10.0,14.0,79,0.00,,,0.00,Wunderground v.1.15,2013-02-18 18:01:00,
2013-02-18 12:11:00,14.9,9.3,29.96,North,360,11.0,13.0,78,0.00,,,0.00,Wunderground v.1.15,2013-02-18 18:11:00,
2013-02-18 12:20:00,14.8,9.5,29.97,NNW,327,11.0,12.0,79,0.00,,,0.00,Wunderground v.1.15,2013-02-18 18:20:00,
2013-02-18 12:25:00,15.0,9.4,29.96,NW,319,10.0,20.0,78,0.00,,,0.00,Wunderground v.1.15,2013-02-18 18:25:00,
2013-02-18 12:30:00,15.2,9.6,29.97,WNW,302,12.0,12.0,78,0.00,,,0.00,Wunderground v.1.15,2013-02-18 18:30:00,
2013-02-18 12:35:00,15.5,9.9,29.97,NNW,327,12.0,14.0,78,0.00,,,0.00,Wunderground v.1.15,2013-02-18 18:35:00,
2013-02-18 12:41:00,15.5,9.6,29.97,NW,307,12.0,20.0,77,0.00,,,0.00,Wunderground v.1.15,2013-02-18 18:41:00,
2013-02-18 12:50:00,15.2,9.0,29.98,NNW,329,12.0,12.0,76,0.00,,,0.00,Wunderground v.1.15,2013-02-18 18:50:00,
2013-02-18 12:55:00,15.1,8.9,29.97,NNW,337,11.0,12.0,76,0.00,,,0.00,Wunderground v.1.15,2013-02-18 18:55:00,
2013-02-18 13:01:00,15.2,9.0,29.97,NNW,336,11.0,11.0,76,0.00,,,0.00,Wunderground v.1.15,2013-02-18 19:01:00,
2013-02-18 13:10:00,15.4,8.9,29.97,NW,321,10.0,17.0,75,0.00,,,0.00,Wunderground v.1.15,2013-02-18 19:10:00,
2013-02-18 13:15:00,15.5,9.0,29.97,NNW,332,13.0,17.0,75,0.00,,,0.00,Wunderground v.1.15,2013-02-18 19:15:00,
2013-02-18 13:20:00,15.6,9.1,29.97,NNW,340,14.0,14.0,75,0.00,,,0.00,Wunderground v.1.15,2013-02-18 19:20:00,
2013-02-18 13:25:00,15.6,9.1,29.97,NNW,331,13.0,14.0,75,0.00,,,0.00,Wunderground v.1.15,2013-02-18 19:25:00,
2013-02-18 13:30:00,15.8,9.6,29.97,North,355,12.0,12.0,76,0.00,,,0.00,Wunderground v.1.15,2013-02-18 19:30:00,
2013-02-18 13:36:00,16.1,9.9,29.97,North,360,11.0,12.0,76,0.00,,,0.00,Wunderground v.1.15,2013-02-18 19:36:00,
2013-02-18 13:45:00,16.1,9.9,29.97,NNW,344,12.0,12.0,76,0.00,,,0.00,Wunderground v.1.15,2013-02-18 19:45:00,
2013-02-18 13:50:00,16.3,9.8,29.97,NW,304,10.0,10.0,75,0.00,,,0.00,Wunderground v.1.15,2013-02-18 19:50:00,
2013-02-18 13:55:00,16.1,9.3,29.98,NNW,332,11.0,14.0,74,0.00,,,0.00,Wunderground v.1.15,2013-02-18 19:55:00,
2013-02-18 14:01:00,15.8,9.3,29.98,NNW,331,11.0,13.0,75,0.00,,,0.00,Wunderground v.1.15,2013-02-18 20:01:00,
2013-02-18 14:10:00,15.6,9.4,29.98,NNW,329,12.0,12.0,76,0.00,,,0.00,Wunderground v.1.15,2013-02-18 20:10:00,
2013-02-18 14:15:00,15.9,9.7,29.98,NW,306,11.0,12.0,76,0.00,,,0.00,Wunderground v.1.15,2013-02-18 20:15:00,
2013-02-18 14:21:00,15.9,9.7,29.98,NW,314,10.0,10.0,76,0.00,,,0.00,Wunderground v.1.15,2013-02-18 20:21:00,
2013-02-18 14:30:00,15.3,9.1,29.98,NW,319,12.0,12.0,76,0.00,,,0.00,Wunderground v.1.15,2013-02-18 20:30:00,
2013-02-18 14:35:00,15.4,9.2,29.99,WNW,295,12.0,14.0,76,0.00,,,0.00,Wunderground v.1.15,2013-02-18 20:35:00,
2013-02-18 14:40:00,15.4,8.9,29.99,WNW,302,12.0,14.0,75,0.00,,,0.00,Wunderground v.1.15,2013-02-18 20:40:00,
2013-02-18 14:45:00,15.6,9.4,29.99,NW,325,13.0,18.0,76,0.00,,,0.00,Wunderground v.1.15,2013-02-18 20:45:00,
2013-02-18 14:50:00,15.8,9.6,29.99,NNW,335,13.0,13.0,76,0.00,,,0.00,Wunderground v.1.15,2013-02-18 20:50:00,
2013-02-18 14:55:00,15.9,10.0,29.99,NW,318,12.0,13.0,77,0.00,,,0.00,Wunderground v.1.15,2013-02-18 20:55:00,
2013-02-18 15:01:00,16.0,9.8,30.00,WNW,302,11.0,17.0,76,0.00,,,0.00,Wunderground v.1.15,2013-02-18 21:01:00,
2013-02-18 15:10:00,15.8,9.3,30.00,NW,317,11.0,17.0,75,0.00,,,0.00,Wunderground v.1.15,2013-02-18 21:10:00,
2013-02-18 15:15:00,15.8,9.0,30.00,NNW,334,12.0,17.0,74,0.00,,,0.00,Wunderground v.1.15,2013-02-18 21:15:00,
2013-02-18 15:25:00,15.3,8.2,30.01,NNW,327,12.0,13.0,73,0.00,,,0.00,Wunderground v.1.15,2013-02-18 21:25:00,
2013-02-18 15:31:00,15.0,8.2,30.01,NW,315,13.0,13.0,74,0.00,,,0.00,Wunderground v.1.15,2013-02-18 21:31:00,
2013-02-18 15:40:00,14.3,8.1,30.02,North,5,11.0,11.0,76,0.00,,,0.00,Wunderground v.1.15,2013-02-18 21:40:00,
2013-02-18 15:45:00,14.1,8.2,30.03,NW,309,11.0,21.0,77,0.00,,,0.00,Wunderground v.1.15,2013-02-18 21:45:00,
2013-02-18 15:50:00,13.7,7.5,30.03,North,349,11.0,11.0,76,0.00,,,0.00,Wunderground v.1.15,2013-02-18 21:50:00,
2013-02-18 15:55:00,13.2,6.5,30.03,NW,323,11.0,19.0,74,0.00,,,0.00,Wunderground v.1.15,2013-02-18 21:55:00,
2013-02-18 16:01:00,12.9,6.5,30.03,NNW,334,11.0,13.0,75,0.00,,,0.00,Wunderground v.1.15,2013-02-18 22:01:00,
2013-02-18 16:10:00,13.0,6.6,30.04,North,11,13.0,13.0,75,0.00,,,0.00,Wunderground v.1.15,2013-02-18 22:10:00,
2013-02-18 16:16:00,13.0,6.6,30.04,NW,310,12.0,16.0,75,0.00,,,0.00,Wunderground v.1.15,2013-02-18 22:16:00,
2013-02-18 16:25:00,12.5,6.1,30.05,NNW,348,13.0,13.0,75,0.00,,,0.00,Wunderground v.1.15,2013-02-18 22:25:00,
2013-02-18 16:30:00,12.2,5.5,30.05,WNW,302,13.0,13.0,74,0.00,,,0.00,Wunderground v.1.15,2013-02-18 22:30:00,
2013-02-18 16:40:00,11.9,5.5,30.05,NW,319,13.0,17.0,75,0.00,,,0.00,Wunderground v.1.15,2013-02-18 22:40:00,
2013-02-18 16:45:00,11.8,5.4,30.06,NW,309,12.0,20.0,75,0.00,,,0.00,Wunderground v.1.15,2013-02-18 22:45:00,
2013-02-18 16:50:00,11.6,5.5,30.06,NW,326,11.0,14.0,76,0.00,,,0.00,Wunderground v.1.15,2013-02-18 22:50:00,
2013-02-18 16:55:00,11.5,5.4,30.06,NNW,333,11.0,14.0,76,0.00,,,0.00,Wunderground v.1.15,2013-02-18 22:55:00,
2013-02-18 17:01:00,11.3,4.9,30.07,NNW,340,10.0,10.0,75,0.00,,,0.00,Wunderground v.1.15,2013-02-18 23:01:00,
2013-02-18 17:10:00,10.8,4.4,30.07,NNW,331,11.0,12.0,75,0.00,,,0.00,Wunderground v.1.15,2013-02-18 23:10:00,
2013-02-18 17:15:00,10.5,4.1,30.08,WNW,300,11.0,15.0,75,0.00,,,0.00,Wunderground v.1.15,2013-02-18 23:15:00,
2013-02-18 17:21:00,10.3,3.9,30.08,NW,315,12.0,12.0,75,0.00,,,0.00,Wunderground v.1.15,2013-02-18 23:21:00,
2013-02-18 17:30:00,10.0,4.2,30.09,NW,315,10.0,12.0,77,0.00,,,0.00,Wunderground v.1.15,2013-02-18 23:30:00,
2013-02-18 17:35:00,9.9,3.8,30.09,NNW,344,9.0,12.0,76,0.00,,,0.00,Wunderground v.1.15,2013-02-18 23:35:00,
2013-02-18 17:40:00,9.8,4.0,30.09,NNW,344,7.0,10.0,77,0.00,,,0.00,Wunderground v.1.15,2013-02-18 23:40:00,
2013-02-18 17:45:00,9.9,4.1,30.09,North,355,6.0,11.0,77,0.00,,,0.00,Wunderground v.1.15,2013-02-18 23:45:00,
2013-02-18 17:51:00,9.9,4.4,30.10,NW,321,7.0,13.0,78,0.00,,,0.00,Wunderground v.1.15,2013-02-18 23:51:00,
2013-02-18 18:01:00,9.5,3.5,30.11,NNW,327,10.0,10.0,76,0.00,,,0.00,Wunderground v.1.15,2013-02-19 00:01:00,
2013-02-18 18:11:00,8.9,3.2,30.11,NW,323,7.0,7.0,77,0.00,,,0.00,Wunderground v.1.15,2013-02-19 00:11:00,
2013-02-18 18:20:00,8.4,2.4,30.12,NNW,344,10.0,10.0,76,0.00,,,0.00,Wunderground v.1.15,2013-02-19 00:20:00,
2013-02-18 18:25:00,8.3,2.3,30.12,NW,323,9.0,13.0,76,0.00,,,0.00,Wunderground v.1.15,2013-02-19 00:25:00,
2013-02-18 18:30:00,8.1,2.1,30.12,NNW,336,8.0,8.0,76,0.00,,,0.00,Wunderground v.1.15,2013-02-19 00:30:00,
2013-02-18 18:35:00,8.1,2.1,30.12,NNW,340,9.0,16.0,76,0.00,,,0.00,Wunderground v.1.15,2013-02-19 00:35:00,
2013-02-18 18:40:00,8.0,2.0,30.13,NW,321,9.0,15.0,76,0.00,,,0.00,Wunderground v.1.15,2013-02-19 00:40:00,
2013-02-18 18:45:00,7.8,1.8,30.13,NNE,12,10.0,15.0,76,0.00,,,0.00,Wunderground v.1.15,2013-02-19 00:45:00,
2013-02-18 18:51:00,7.5,1.5,30.13,NW,313,9.0,9.0,76,0.00,,,0.00,Wunderground v.1.15,2013-02-19 00:51:00,
2013-02-18 19:01:00,7.1,1.1,30.14,NW,326,9.0,9.0,76,0.00,,,0.00,Wunderground v.1.15,2013-02-19 01:01:00,
2013-02-18 19:11:00,6.3,0.3,30.14,North,355,9.0,9.0,76,0.00,,,0.00,Wunderground v.1.15,2013-02-19 01:11:00,
2013-02-18 19:20:00,5.8,-0.1,30.15,North,350,8.0,8.0,76,0.00,,,0.00,Wunderground v.1.15,2013-02-19 01:20:00,
2013-02-18 19:25:00,5.5,-0.4,30.15,NNW,334,7.0,8.0,76,0.00,,,0.00,Wunderground v.1.15,2013-02-19 01:25:00,
2013-02-18 19:31:00,5.4,-0.2,30.16,North,360,7.0,7.0,77,0.00,,,0.00,Wunderground v.1.15,2013-02-19 01:31:00,
2013-02-18 19:36:00,5.4,-0.2,30.16,NNW,330,8.0,8.0,77,0.00,,,0.00,Wunderground v.1.15,2013-02-19 01:36:00,
2013-02-18 19:41:00,5.5,-0.4,30.17,NNW,341,9.0,9.0,76,0.00,,,0.00,Wunderground v.1.15,2013-02-19 01:41:00,
2013-02-18 19:50:00,5.2,-1.0,30.17,North,360,9.0,13.0,75,0.00,,,0.00,Wunderground v.1.15,2013-02-19 01:50:00,
2013-02-18 19:55:00,5.0,-1.2,30.17,North,360,10.0,13.0,75,0.00,,,0.00,Wunderground v.1.15,2013-02-19 01:55:00,
2013-02-18 20:01:00,4.9,-1.0,30.17,NNW,341,10.0,11.0,76,0.00,,,0.00,Wunderground v.1.15,2013-02-19 02:01:00,
2013-02-18 20:10:00,4.5,-1.7,30.17,NW,318,12.0,12.0,75,0.00,,,0.00,Wunderground v.1.15,2013-02-19 02:10:00,
2013-02-18 20:15:00,4.4,-1.5,30.18,NNW,344,10.0,12.0,76,0.00,,,0.00,Wunderground v.1.15,2013-02-19 02:15:00,
2013-02-18 20:21:00,4.2,-1.7,30.18,North,360,8.0,10.0,76,0.00,,,0.00,Wunderground v.1.15,2013-02-19 02:21:00,
2013-02-18 20:30:00,4.0,-1.9,30.18,NNW,333,7.0,7.0,76,0.00,,,0.00,Wunderground v.1.15,2013-02-19 02:30:00,
2013-02-18 20:35:00,3.8,-2.1,30.18,North,355,7.0,7.0,76,0.00,,,0.00,Wunderground v.1.15,2013-02-19 02:35:00,
2013-02-18 20:41:00,3.6,-2.3,30.18,NNE,22,7.0,7.0,76,0.00,,,0.00,Wunderground v.1.15,2013-02-19 02:41:00,
2013-02-18 20:50:00,3.3,-2.6,30.18,North,355,9.0,12.0,76,0.00,,,0.00,Wunderground v.1.15,2013-02-19 02:50:00,
2013-02-18 20:55:00,3.1,-3.0,30.18,NW,321,10.0,12.0,75,0.00,,,0.00,Wunderground v.1.15,2013-02-19 02:55:00,
2013-02-18 21:01:00,2.9,-3.0,30.18,NW,319,10.0,10.0,76,0.00,,,0.00,Wunderground v.1.15,2013-02-19 03:01:00,
2013-02-18 21:11:00,2.6,-3.0,30.18,North,10,10.0,10.0,77,0.00,,,0.00,Wunderground v.1.15,2013-02-19 03:11:00,
2013-02-18 21:16:00,2.4,-3.2,30.19,NW,313,8.0,10.0,77,0.00,,,0.00,Wunderground v.1.15,2013-02-19 03:16:00,
2013-02-18 21:25:00,2.0,-3.6,30.19,NW,313,9.0,14.0,77,0.00,,,0.00,Wunderground v.1.15,2013-02-19 03:25:00,
2013-02-18 21:30:00,1.9,-3.7,30.20,NW,317,9.0,9.0,77,0.00,,,0.00,Wunderground v.1.15,2013-02-19 03:30:00,
2013-02-18 21:36:00,1.8,-3.7,30.20,NW,317,8.0,10.0,77,0.00,,,0.00,Wunderground v.1.15,2013-02-19 03:36:00,
2013-02-18 21:41:00,1.7,-3.8,30.20,NW,319,8.0,8.0,77,0.00,,,0.00,Wunderground v.1.15,2013-02-19 03:41:00,
2013-02-18 21:50:00,1.5,-4.0,30.21,WNW,300,7.0,7.0,77,0.00,,,0.00,Wunderground v.1.15,2013-02-19 03:50:00,
2013-02-18 21:56:00,1.4,-3.9,30.21,NW,320,6.0,15.0,78,0.00,,,0.00,Wunderground v.1.15,2013-02-19 03:56:00,
2013-02-18 22:01:00,1.4,-3.9,30.21,NNW,336,7.0,9.0,78,0.00,,,0.00,Wunderground v.1.15,2013-02-19 04:01:00,
2013-02-18 22:11:00,1.4,-3.9,30.21,NW,317,9.0,12.0,78,0.00,,,0.00,Wunderground v.1.15,2013-02-19 04:11:00,
2013-02-18 22:16:00,1.4,-3.9,30.22,NNW,331,9.0,12.0,78,0.00,,,0.00,Wunderground v.1.15,2013-02-19 04:16:00,
2013-02-18 22:21:00,1.4,-3.9,30.22,NNW,331,8.0,12.0,78,0.00,,,0.00,Wunderground v.1.15,2013-02-19 04:21:00,
2013-02-18 22:30:00,1.4,-3.9,30.22,NW,319,7.0,7.0,78,0.00,,,0.00,Wunderground v.1.15,2013-02-19 04:30:00,
2013-02-18 22:36:00,1.3,-4.0,30.22,NW,321,7.0,7.0,78,0.00,,,0.00,Wunderground v.1.15,2013-02-19 04:36:00,
2013-02-18 22:41:00,1.3,-3.7,30.22,NNW,331,7.0,7.0,79,0.00,,,0.00,Wunderground v.1.15,2013-02-19 04:41:00,
2013-02-18 22:50:00,1.3,-3.7,30.23,WNW,297,8.0,9.0,79,0.00,,,0.00,Wunderground v.1.15,2013-02-19 04:50:00,
2013-02-18 22:56:00,1.4,-3.6,30.23,NNW,330,8.0,9.0,79,0.00,,,0.00,Wunderground v.1.15,2013-02-19 04:56:00,
2013-02-18 23:01:00,1.4,-3.6,30.23,North,355,8.0,9.0,79,0.00,,,0.00,Wunderground v.1.15,2013-02-19 05:01:00,
2013-02-18 23:05:00,1.4,-3.6,30.23,NNW,333,7.0,9.0,79,0.00,,,0.00,Wunderground v.1.15,2013-02-19 05:05:00,
2013-02-18 23:11:00,1.3,-3.7,30.24,North,349,8.0,16.0,79,0.00,,,0.00,Wunderground v.1.15,2013-02-19 05:11:00,
2013-02-18 23:16:00,1.3,-4.0,30.24,NNW,338,8.0,16.0,78,0.00,,,0.00,Wunderground v.1.15,2013-02-19 05:16:00,
2013-02-18 23:20:00,1.1,-4.2,30.24,NNW,329,7.0,7.0,78,0.00,,,0.00,Wunderground v.1.15,2013-02-19 05:20:00,
2013-02-18 23:25:00,1.0,-4.3,30.25,North,360,6.0,7.0,78,0.00,,,0.00,Wunderground v.1.15,2013-02-19 05:25:00,
2013-02-18 23:30:00,0.9,-4.4,30.25,NNW,329,6.0,8.0,78,0.00,,,0.00,Wunderground v.1.15,2013-02-19 05:30:00,
2013-02-18 23:36:00,0.9,-4.4,30.25,NNW,341,6.0,8.0,78,0.00,,,0.00,Wunderground v.1.15,2013-02-19 05:36:00,
2013-02-18 23:41:00,0.8,-4.5,30.25,NW,325,6.0,11.0,78,0.00,,,0.00,Wunderground v.1.15,2013-02-19 05:41:00,
2013-02-18 23:50:00,0.5,-5.0,30.26,NNE,14,6.0,12.0,77,0.00,,,0.00,Wunderground v.1.15,2013-02-19 05:50:00,
2013-02-18 23:55:00,0.4,-5.1,30.26,NNW,338,6.0,12.0,77,0.00,,,0.00,Wunderground v.1.15,2013-02-19 05:55:00,